Find Hai Yang 2-04

NORAD ID: 48621 Int'l Des: 2021-043 Owner: GYZ/CASC Country: CN operational
LEOCIRCULAR

現在のビュー

3D地球を読み込み中...

About Hai Yang 2-04

Hai Yang 2-04 (NORAD 48621) is a satellite launched May 19, 2021 by GYZ/CASC of CN. It operates in LEO, CIRCULAR orbit with a mass of 1500.00 kg.

次回通過

Passes for default location (London). Set your location on the main map for personalized predictions.

高度履歴

Loading altitude history...

軌道要素

1 48621U 21043A 26195.61994078 -.00000110 00000-0 -26506-4 0 9995
2 48621 65.9974 236.4023 0011588 265.8092 94.1652 13.83373454260341
Epoch: Jul 14, 2026 • Age: 7 hours

現在のステータス

高度 970.9 km
遠地点 / 近地点 N/A
速度 7.37 km/s
衛星直下点 66.11°N, 58.95°E
打ち上げ日 May 19, 2021
運用期間 5.1 years
タイプ other

技術仕様

分類 Payload
質量 1500.00 kg
乾燥質量 1500.00 kg
総質量 1500.00 kg
長さ 1.00 m
直径 1.00 m
スパン 4.00 m
形状 Box + 2 Pan
製造者 SISE
バスタイプ CAST-968
フェーズステータス In Orbit
所有者/国 GYZ/CASC/CN

Most Searched